Tracking 34171 objects as of 21-May-2026
HD Live streaming from Space Station
objects crossing your sky now

KUIPER-00505

Track KUIPER-00505 now!
10-day predictions
KUIPER-00505 is classified as:


NORAD ID: 68886
Int'l Code: 2026-095Y
Perigee: 456.2 km
Apogee: 462.6 km
Inclination: 51.9 °
Period: 93.6 minutes
Semi major axis: 6830 km
RCS: Unknown
Launch date: April 28, 2026
Source: United States (US)
Launch site: AIR FORCE EASTERN TEST RANGE (AFETR)
Your satellite tracking list
Your tracking list is empty




NASA's NSSDC Master Catalog

Two Line Element Set (TLE):
1 68886U 26095Y   26140.91070304  .00019003  00000-0  51074-3 0  9998
2 68886  51.8838  14.2223 0004655 165.6970 194.4150 15.37921512  3530
Source of the keplerian elements: AFSPC